EW9968 Weather Reports


Display with metric or nautical units.
time (UTC)temp
F
wind
direction
speed
MPH
gust
MPH
rain 1hr
in
rain 24hr
in
rain mn
in
humidity
%
barometer
mb
20260503031515 44 298 0.0 0.0 0.00 0.00 0.00 93 1010.5
20260503030014 44 298 0.0 0.0 0.00 0.00 0.00 92 1010.5
20260503024512 45 298 0.0 0.0 0.00 0.00 0.00 92 1010.5
20260503023011 45 298 0.0 0.0 0.00 0.00 0.00 92 1010.4
20260503021516 46 301 0.0 1.0 0.00 0.00 0.00 91 1010.6
20260503020011 46 231 0.0 0.0 0.00 0.00 0.00 91 1010.7
20260503014509 47 231 0.0 0.0 0.00 0.00 0.00 90 1010.7
20260503013008 48 231 0.0 1.0 0.00 0.00 0.00 90 1010.6
20260503011522 48 231 0.0 0.0 0.00 0.00 0.00 90 1010.8
20260503010009 48 231 0.0 0.0 0.00 0.00 0.00 90 1010.6
20260503004506 49 183 0.0 1.0 0.00 0.00 0.00 91 1010.6
20260503003005 49 271 0.0 2.0 0.00 0.00 0.00 91 1010.5
20260503001505 49 206 0.0 2.0 0.00 0.00 0.00 92 1010.4
20260503000008 49 19 0.0 0.0 0.00 0.00 0.00 91 1010.2
20260502234512 49 276 0.0 0.0 0.00 0.00 0.00 90 1009.9
20260502233003 50 271 0.0 0.0 0.00 0.00 0.00 90 1010.1
20260502231503 50 271 0.0 0.0 0.00 0.00 0.00 90 1009.9
20260502230002 50 271 0.0 0.0 0.00 0.00 0.00 90 1009.9
20260502224502 50 272 0.0 0.0 0.00 0.00 0.00 90 1009.6
20260502223002 51 271 0.0 1.0 0.00 0.00 0.00 89 1009.4
20260502221501 51 162 0.0 0.0 0.00 0.00 0.00 90 1009.3
20260502220146 50 162 0.0 0.0 0.00 0.00 0.00 90 1009.5
20260502214602 50 208 0.0 0.0 0.00 0.00 0.00 90 1009.6
20260502213104 50 208 0.0 0.0 0.00 0.00 0.00 89 1009.7
20260502211558 50 207 0.0 1.0 0.00 0.00 0.00 89 1009.7
20260502210103 50 207 0.0 1.0 0.00 0.00 0.00 88 1009.8
20260502204608 50 269 0.0 1.0 0.00 0.01 0.00 85 1009.8
20260502203111 51 264 0.0 1.0 0.00 0.01 0.00 80 1009.7
20260502201555 52 292 0.0 1.0 0.00 0.01 0.00 78 1009.7
20260502200055 52 222 0.0 1.0 0.00 0.01 0.00 79 1009.7
20260502194557 54 276 0.0 3.0 0.00 0.01 0.00 76 1009.7
20260502193054 56 235 0.0 2.0 0.00 0.01 0.00 69 1009.6
20260502191607 57 184 0.0 1.0 0.00 0.01 0.00 65 1009.7
20260502190104 57 184 0.0 4.0 0.00 0.01 0.00 64 1009.6
20260502184550 57 13 0.0 3.0 0.00 0.01 0.00 65 1009.9
20260502183058 57 146 0.0 0.0 0.00 0.01 0.00 65 1010.0
20260502181547 57 248 0.0 0.0 0.00 0.01 0.00 64 1009.9
20260502163057 55 155 0.0 0.0 0.00 0.01 0.00 78 1010.9
20260502161535 54 112 0.0 0.0 0.00 0.01 0.00 78 1011.2
20260502151526 52 108 0.0 0.0 0.00 0.01 0.00 85 1011.4
20260502123003 45 254 0.0 0.0 0.00 0.01 0.00 93 1012.5
20260502121502 45 254 0.0 0.0 0.00 0.01 0.00 93 1012.6
20260502120104 0 0.0 0.0 0.00 0.01 0.00 1012.3
20260502114605 0 0.0 0.0 0.00 0.01 0.00 1012.4
20260502113056 0 0.0 0.0 0.00 0.01 0.00 1012.7
20260502111552 0 0.0 0.0 0.00 0.01 0.00 1012.6
20260502110047 0 0.0 0.0 0.00 0.01 0.00 1011.9
20260502104542 0 0.0 0.0 0.00 0.01 0.00 1010.9
20260502103039 0 0.0 0.0 0.00 0.01 0.00 1011.3
20260502101533 0 0.0 0.0 0.00 0.01 0.00 1011.2
20260502091517 0 0.0 0.0 0.00 0.01 0.00 1011.3
20260502070048 0 0.0 0.0 0.00 0.01 0.00 1011.1
20260502064542 0 0.0 0.0 0.00 0.01 0.00 1011.2
20260502063029 0 0.0 0.0 0.00 0.01 0.00 1011.4
20260502061524 0 0.0 0.0 0.00 0.01 0.00 1011.0
20260502060019 0 0.0 0.0 0.00 0.01 0.00 1010.8
20260502054515 0 0.0 0.0 0.00 0.01 0.00 1011.0
20260502053010 0 0.0 0.0 0.00 0.01 0.00 1011.2
20260502051512 0 0.0 0.0 0.00 0.01 0.00 1011.1
20260502050002 0 205 0.0 0.0 0.00 0.01 0.00 1011.1
20260502044559 46 207 0.0 0.0 0.00 0.01 0.00 76 1011.1
20260502043106 45 207 0.0 0.0 0.00 0.01 0.00 77 1011.4
20260502041555 45 207 0.0 0.0 0.00 0.01 0.00 77 1011.4
20260502040052 45 162 0.0 0.0 0.00 0.01 0.00 75 1011.3
20260502034551 46 148 0.0 0.0 0.00 0.01 0.01 73 1011.3
20260502033051 46 146 0.0 0.0 0.00 0.01 0.01 72 1011.2